Location: De Har
(53.3413°N, 6.6858°E)
Time: 17:27:42
(UTC+00:00)

CZ-2D R/B - Pass Details

Date: 22 April 2026
Orbit: 789 x 842 km, 98.9° (Epoch: 9 May)

Event Time Altitude Azimuth Distance (km) Brightness Sun altitude
Rises 02:12:03 0° 18° (NNE) 3,311 6.6 -16.1°
Reaches altitude 10° 02:14:26 10° 23° (NNE) 2,382 5.7 -15.9°
Maximum altitude 02:19:36 56° 101° (ESE) 960 2.7 -15.4°
Enters shadow 02:24:33 11° 179° (S) 2,301 4.1 -14.9°
